Location: Saint Louis
(38.6272°N, 90.1978°W)
Time: 04:04:01
(UTC-05:00)

ISS - Pass Details

Date: 18 September 2013
Orbit: 402 x 403 km, 51.6° (Epoch: 28 June)

Event Time Altitude Azimuth Distance (km) Brightness Sun altitude
Exits shadow 04:32:08 20° 11° (N) 1,084 -0.8 -25.9°
Drops below altitude 10° 04:33:44 10° 32° (NNE) 1,570 0.4 -25.6°
Sets 04:36:05 0° 45° (NE) 2,441 1.8 -25.2°
